Hourly Weather Roundup
Issued by NWS Central Illinois

Home | Current Version | Previous Version | Text Only | Print | Product List | Glossary On
Versions: 1 2 3 4 5 6 7 8 9 10 11 12 13 14 15 16 17 18 19 20 21 22 23 24 25 26 27 28 29 30 31 32 33 34 35 36 37 38 39 40 41 42 43 44 45 46 47 48 49 50
000
NZUS43 KILX 260810
HWRILX

AREA WEATHER ROUNDUP
NATIONAL WEATHER SERVICE, LINCOLN IL
300 AM CDT TUE MAY 26 2015


CITY           SKY/WX    TMP DP  RH WIND       PRES   REMARKS
BLOOMINGTON    CLEAR     67  66  96 S14       29.95F
CHAMPAIGN      CLOUDY    68  65  90 S16       29.96F
DANVILLE       CLOUDY    66  65  94 S10       29.96F
DECATUR        CLOUDY    70  66  87 S13       29.95S
EFFINGHAM      CLOUDY    69  65  86 SE7       29.99F
FLORA          MOCLDY    69  66  91 SE12      29.98F
GALESBURG      MOCLDY    68  65  91 S7        29.88F
JACKSONVILLE   CLOUDY    72  67  87 SE12      29.89F
LACON          PTCLDY    68  65  88 S5        29.90F
LAWRENCEVILLE  MOCLDY    69  66  90 S10       30.01F
LITCHFIELD     CLOUDY    69  65  88 S14G20    29.92F
$$


CITY           SKY/WX    TMP DP  RH WIND       PRES   REMARKS
LINCOLN        MOCLDY    69  66  89 S9        29.91F
MACOMB         CLOUDY    69  66  92 S9        29.89F
MATTOON        CLOUDY    68  66  93 S12       29.97S
MT CARMEL AP   CLOUDY    72  64  78 S9        30.01S
OLNEY-NOBLE AP CLOUDY    68  66  94 SE9       29.99F
PARIS          CLOUDY    68  66  94 S12       29.99F
PEORIA         MOCLDY    70  66  87 S10       29.91F
PONTIAC        CLEAR     68  67  94 S13       29.94F
RANTOUL        CLOUDY    68  66  93 S9        29.96F
ROBINSON       CLOUDY    68  66  94 S9        30.02S
SPRINGFIELD    CLOUDY    71  66  84 S13       29.92S
TAYLORVILLE    CLOUDY    68  64  88 SE10G16   29.94F
$$

...REGIONAL REPORTS...


CITY           SKY/WX    TMP DP  RH WIND       PRES   REMARKS
CHICAGO O`HARE PTCLDY    68  64  87 S9        29.92F
KANKAKEE       CLEAR     66  65  94 S9        29.96F
MOLINE         PTCLDY    70  65  84 S9        29.86S
MOUNT VERNON   CLOUDY    70  64  83 S12       29.98S
PITTSFIELD     CLOUDY    70  66  87 SE9       29.88F
QUINCY         CLOUDY    70  65  84 SE7       29.85F
ROCKFORD       PTCLDY    69  63  81 S10       29.91F
$$


CITY           SKY/WX    TMP DP  RH WIND       PRES   REMARKS
BURLINGTON     CLOUDY    70  67  90 S7        29.84F
CEDAR RAPIDS   MOCLDY    66  65  96 E6        29.84S
DES MOINES     LGT RAIN  63  59  87 E6        29.77F
KIRKSVILLE     CLOUDY    69  67  93 SE10      29.81F
OTTUMWA        CLOUDY    63  59  87 E5        29.81F
ST LOUIS       CLOUDY    74  67  78 SE15G21   29.88F
$$


CITY           SKY/WX    TMP DP  RH WIND       PRES   REMARKS
TERRE HAUTE    CLOUDY    67  65  93 S8        30.01F
EVANSVILLE     CLOUDY    70  66  87 S12       30.04R
INDIANAPOLIS   CLOUDY    66  63  90 SE10      30.02F
LAFAYETTE      MOCLDY    65  63  93 S5        29.99F
MADISON        FAIR      66  60  81 S8        29.86F
MILWAUKEE      PTCLDY    67  60  78 S8        29.91S
$$




USA.gov is the U.S. government's official web portal to all federal, state and local government web resources and services.